Location: Newark
(55.8372°N, 37.1596°E)
Time: 22:01:35
(UTC+00:00)

Envisat - Pass Details

Date: 21 October 2019
Orbit: 764 x 766 km, 98.1° (Epoch: 20 November)

Event Time Altitude Azimuth Distance (km) Brightness Sun altitude
Rises 16:55:11 0° 212° (SSW) 3,227 6.5 -22.7°
Reaches altitude 10° 16:58:14 10° 232° (SW) 2,306 5.9 -23.1°
Maximum altitude 17:01:38 18° 274° (W) 1,828 5.8 -23.6°
Drops below altitude 10° 17:05:04 10° 317° (NW) 2,317 6.3 -24.0°
Sets 17:08:09 0° 336° (NNW) 3,248 6.8 -24.4°
